Weather in Nekrasovo

Russia / Novgorod Oblast     58°34′30″N   30°07′17″E
temp.,
°C
wind,
m/s
gust,
m/s
humid.,
%
clouds,
%
prec.,
mm/h
press.,
hPa
HPBL,
m
1 march, mon
mon100:00−1w229792 0.0 102256
03:00−2w279673 0.0 1024150
06:00−1wsw389655 0.0 1022212
09:00+1w4109676 0.0 1022392
12:00+2w4891100 0.0 1021435
15:00+4w41183100 0.0 1021605
18:00+2wsw41188100 0.0 1018422
21:00+2w51589100 0.0 1016737
2 march, tue
tue200:00+2wnw41191100 0.0 1015678
03:00+1wnw41192100 0.0 1015561
06:00+1wnw41190100 0.0 1014706
09:00+1wnw41191100 0.0 1014810
12:00+2nw51080100 0.1 10141005
15:00+3nw6117562 0.1 1016851
18:00+1nw5128126 0.0 1017778
21:000nw4128516 0.0 1020666
3 march, wed
wed300:00−1nw411860 0.0 1020522
03:00−1wnw412860 0.0 1021543
06:00−1wnw411900 0.0 1019515
09:00−1wnw5118733 0.0 1020714
12:00+1wnw5979100 0.0 1019730
15:00+3w5107496 0.0 10171093
18:00+2w4127898 0.0 1014876
21:00+1wsw5148287 0.0 1011747
4 march, thu
thu400:00+1wsw61580100 0.0 1007716
03:00+1w51294100 0.0 1004775
06:000wnw41097100 1.4 1001643
09:00−1wnw5117799 1.6 10001087
12:00−1nw61073100 0.1 10011224
15:000nw6105978 0.1 10031627
18:00−2nw5974100 0.1 10051211
21:00−3nnw3771100 0.1 10071014
5 march, fri
fri500:00−5nw257834 0.0 1008326
03:00−5wnw128318 0.0 100872
06:00−6w118517 0.0 100921
09:00−5e118058 0.0 1009100
12:00−4e2374100 0.1 1010496
15:00−3ene2373100 0.1 1012667
18:00−4ne247699 0.1 1012667
21:00−5nne377396 0.2 1014518